Wind_Speed
94 95 95 94 93 93 92 91 90 88 88 87 86 85 84 83 83 83 83 82 82 81 80 79 79 79 79 79 79 79 79 79 79 79 79 79 79 79 79 79 79 79 78 78 77 77 76 76 75 74 73 73 73 74 74 74 73 73 72 71 70 70 69 68 67 68 68 69 70 70 71 71 71 71 71 72 72 73 74 75 75 76 77 78 79 80
95 96 96 96 95 95 94 94 93 92 91 90 89 88 87 86 85 84 84 84 84 83 82 81 80 80 80 79 79 79 79 79 79 80 80 80 80 80 80 80 80 80 79 79 79 78 78 78 77 76 75 74 74 74 74 74 73 73 73 72 72 71 70 69 69 69 70 70 71 71 71 71 72 72 72 73 74 74 75 76 77 78 79 79 80 80
96 96 97 97 97 96 96 96 95 94 94 93 92 91 90 88 87 86 86 85 85 84 84 83 82 81 81 80 80 80 79 80 80 80 81 81 81 81 81 81 81 81 80 80 80 80 80 79 78 77 76 75 75 75 75 74 74 74 74 74 73 72 71 70 70 70 71 71 71 72 72 72 73 73 73 74 75 76 77 78 79 80 80 80 80 81
97 97 97 97 97 97 97 97 97 96 96 96 95 94 93 92 90 89 88 87 87 86 86 85 84 83 83 82 81 81 81 81 81 81 81 82 82 82 82 82 82 82 81 81 81 81 81 80 79 78 77 76 76 76 75 75 76 76 76 75 74 73 72 72 72 72 72 72 72 73 73 73 74 74 75 75 76 78 79 80 81 81 81 81 81 82
97 97 97 97 97 97 98 98 98 98 98 97 97 97 96 95 94 92 91 90 89 88 87 87 86 85 85 84 83 83 82 82 82 82 82 82 83 83 83 83 83 82 82 82 81 81 81 80 79 78 78 77 77 77 77 77 77 77 77 76 75 74 73 73 73 73 73 73 73 74 74 74 75 76 76 77 78 79 81 82 82 82 82 82 83 83
99 97 96 95 95 96 97 97 98 98 98 98 98 98 97 97 96 95 94 92 91 90 89 89 88 87 87 86 85 85 84 84 84 83 83 83 83 84 84 84 84 83 82 82 81 81 81 80 80 79 79 78 79 79 79 79 79 79 78 77 76 75 74 74 74 74 74 74 74 75 75 76 76 77 78 79 80 81 82 83 83 84 83 83 84 84
100 98 96 95 95 95 96 97 97 98 98 98 98 98 97 97 96 96 95 94 93 92 91 90 89 89 88 88 87 87 87 86 86 85 85 85 85 85 85 85 85 84 83 83 82 82 81 81 81 81 81 81 81 81 81 81 80 80 79 78 77 76 75 75 75 75 75 75 76 76 77 77 78 79 80 81 82 83 84 84 84 84 84 84 84 85
100 99 97 96 96 96 97 97 98 98 98 98 97 97 97 96 96 96 95 95 94 93 92 91 90 90 90 90 89 89 89 88 88 88 87 87 87 87 87 86 86 86 85 85 84 83 83 83 83 83 83 83 83 83 83 82 82 81 80 79 78 77 77 77 76 76 76 77 77 78 78 79 80 81 82 83 83 84 85 85 85 85 85 85 85 85
101 100 100 99 98 98 98 99 100 100 100 99 98 98 97 96 96 95 95 95 94 93 93 92 91 91 91 91 91 91 91 90 90 90 90 90 89 89 89 89 89 88 88 87 86 86 85 85 85 85 85 84 84 84 84 83 83 82 81 80 79 78 78 78 78 78 78 78 79 79 80 81 82 82 83 84 85 85 85 86 86 86 86 86 86 86
103 102 102 101 101 100 100 101 101 102 101 101 100 99 98 97 96 96 95 95 94 94 93 93 92 92 92 92 92 92 92 92 92 92 91 91 91 91 91 91 91 90 90 89 88 88 88 87 87 86 86 86 86 85 85 85 84 83 82 81 80 79 79 79 79 79 80 80 81 81 82 83 83 84 85 85 86 86 86 86 86 86 87 87 87 87
105 104 104 104 104 104 103 103 103 103 103 102 102 101 100 99 98 97 96 95 95 95 94 94 94 94 94 94 93 93 93 92 92 92 92 92 92 93 93 93 92 92 91 91 90 89 89 88 88 88 87 87 87 87 86 85 85 84 83 82 81 80 80 81 81 81 81 82 82 83 84 84 85 86 86 86 86 86 86 87 87 87 87 88 88 88
106 106 106 106 106 106 106 105 105 104 104 103 103 102 102 101 100 99 98 97 96 96 96 96 96 96 96 95 95 95 94 94 93 93 93 93 93 93 93 93 93 93 92 91 91 90 90 89 89 89 88 88 88 87 87 86 85 85 84 83 82 82 82 82 82 82 83 83 84 85 85 86 86 87 87 87 87 87 87 87 88 88 88 89 89 89
108 108 107 107 107 108 108 107 107 106 105 104 104 103 103 103 102 101 100 99 98 98 98 98 98 98 98 98 97 97 96 96 95 95 95 94 94 94 94 94 94 93 93 92 92 91 91 90 90 90 90 89 89 88 88 87 86 85 85 84 84 83 83 83 84 84 84 85 86 86 87 87 88 88 88 88 88 88 88 88 89 89 89 90 90 91
110 109 108 108 108 108 109 108 108 107 106 106 105 105 104 103 102 101 101 101 101 100 100 99 99 99 99 99 99 99 98 98 98 97 97 97 96 96 95 95 95 95 94 93 93 92 92 91 91 91 91 90 90 89 89 88 87 86 86 86 85 85 85 85 85 86 86 86 87 87 88 88 88 89 89 89 89 89 89 90 90 90 91 91 91 92
111 110 109 109 109 109 109 109 109 108 108 108 107 106 105 104 103 102 102 102 102 102 101 101 100 100 100 100 99 99 99 99 99 99 99 99 98 98 97 97 96 96 95 95 94 94 93 92 92 92 92 91 91 90 90 89 88 88 87 87 87 87 87 87 87 87 87 88 88 89 89 89 90 90 90 90 90 90 91 91 91 92 92 92 93 93
112 111 110 110 110 110 110 109 109 109 110 110 109 108 106 104 104 103 102 102 103 103 102 102 101 101 101 101 100 100 99 99 99 99 99 99 99 99 98 98 97 97 97 96 95 95 94 94 93 93 93 92 92 91 91 90 90 89 89 88 88 88 88 88 88 89 89 89 89 90 90 90 90 91 91 91 91 92 92 92 93 93 93 94 94 94
113 112 111 110 110 110 110 110 110 110 110 111 110 109 108 107 106 105 104 103 103 103 103 102 102 101 101 101 101 100 99 99 99 99 99 99 100 100 99 98 97 97 97 96 96 96 95 95 95 94 94 94 93 93 92 92 91 90 90 90 89 90 89 90 90 90 90 91 91 91 91 91 92 92 92 93 93 93 94 94 94 95 95 95 95 95
113 113 112 111 111 111 111 110 110 111 111 111 111 111 110 109 108 107 106 105 104 104 103 103 102 102 101 101 101 101 100 99 99 99 99 99 99 99 99 98 97 97 97 97 97 97 96 96 96 95 95 95 94 94 93 93 92 92 91 91 91 91 91 91 91 91 92 92 92 92 93 93 93 93 94 94 94 95 95 95 96 96 96 97 97 97
114 114 113 112 112 112 111 111 111 111 111 112 112 112 111 111 110 109 108 107 106 105 104 104 103 103 102 102 102 102 101 100 99 99 99 99 99 99 99 98 97 97 97 97 97 97 97 97 97 97 96 96 95 95 94 94 94 93 93 93 93 92 92 93 93 93 93 94 94 94 94 94 95 95 95 95 96 96 96 97 97 98 98 98 98 98
115 115 114 113 113 112 112 112 112 112 112 112 112 112 112 112 111 111 110 109 108 107 106 105 104 104 104 103 103 103 102 101 100 100 100 100 100 100 100 99 98 98 98 98 99 99 99 98 98 98 97 96 96 96 95 95 95 95 95 94 94 94 94 94 95 95 95 95 95 96 96 96 96 97 97 97 97 98 98 98 99 99 100 100 100 100
115 115 115 115 114 113 112 113 113 113 113 112 112 111 111 112 112 111 111 110 110 109 108 106 106 105 105 104 104 104 104 103 102 102 102 102 102 102 101 101 100 100 100 100 101 100 100 99 99 98 98 97 97 97 97 97 97 96 96 96 96 96 96 96 97 97 97 97 97 97 97 98 98 98 98 98 99 99 100 100 101 101 101 101 101 101
114 115 115 115 114 113 113 113 114 113 113 112 111 111 111 111 111 111 111 111 110 109 108 107 107 106 106 105 105 105 105 104 103 103 104 103 103 104 104 103 102 101 101 102 102 102 101 100 100 99 99 98 98 98 98 98 98 98 98 98 98 98 98 98 98 99 99 99 99 99 99 99 99 100 100 100 100 101 102 102 102 103 103 103 103 103
114 115 115 115 114 113 113 113 113 113 113 112 111 111 111 111 111 111 111 111 110 110 109 109 108 107 106 106 106 106 105 105 104 104 104 104 105 105 105 104 103 103 103 104 103 103 102 101 101 100 100 100 100 100 100 100 100 100 100 100 100 100 100 100 100 100 101 101 101 101 101 101 101 101 102 102 102 103 103 104 104 104 104 104 104 104
114 115 115 114 114 113 113 113 113 112 112 112 111 111 111 111 111 111 111 111 110 110 109 109 108 107 107 107 106 106 106 106 105 105 105 105 106 106 106 105 104 104 105 105 105 104 103 103 103 102 102 102 102 102 102 102 102 102 102 102 102 102 102 102 102 102 102 102 102 102 103 103 103 103 103 104 104 104 105 105 105 105 105 105 105 105
114 115 115 115 114 114 113 113 112 112 111 111 111 111 111 111 111 110 110 110 110 109 109 108 108 107 108 108 107 107 107 107 106 106 105 106 106 107 107 107 106 106 106 107 106 105 105 105 105 104 104 104 104 104 104 104 104 104 104 104 104 104 104 104 104 104 104 104 104 104 104 105 105 105 105 105 106 106 106 106 106 107 106 106 106 106
115 116 115 115 114 113 113 112 112 111 111 110 110 110 110 110 110 110 110 110 110 109 109 108 108 108 109 108 108 108 108 108 107 107 106 106 107 107 108 108 107 107 107 108 108 107 106 106 107 106 106 106 106 106 106 106 106 106 106 106 106 106 106 106 106 106 106 106 106 106 106 106 106 106 107 107 107 107 107 107 108 107 107 107 107 108
116 116 116 115 114 113 113 112 111 111 110 110 110 110 110 110 109 109 109 110 110 110 109 109 109 109 109 108 108 108 108 108 108 108 108 107 107 107 108 108 108 107 108 108 108 108 107 108 108 108 108 108 108 108 107 107 107 107 107 107 107 107 107 107 107 107 107 107 107 107 107 108 108 108 108 108 108 108 108 108 108 108 108 108 109 109
116 116 115 115 114 113 112 112 112 111 110 110 110 110 109 109 109 109 110 111 111 110 109 109 109 109 108 108 108 108 108 108 108 108 108 107 107 107 109 109 108 108 108 108 109 109 108 108 108 109 109 109 109 109 109 109 109 109 108 108 108 108 108 108 108 108 108 108 108 108 108 108 109 109 109 109 109 109 109 109 109 109 109 110 110 110
116 115 115 114 113 112 112 112 112 112 111 111 110 110 110 109 109 110 111 111 110 109 108 109 109 108 108 108 108 108 108 108 108 109 108 107 107 108 109 108 108 108 108 108 109 109 109 109 109 109 109 110 110 110 110 110 110 109 109 109 109 109 109 109 109 109 109 109 109 109 109 109 109 110 110 110 110 110 110 110 110 110 110 111 111 112
115 115 114 113 113 112 112 112 113 113 112 112 111 111 111 110 110 111 111 111 110 108 108 109 109 108 108 107 107 107 107 108 109 109 108 107 107 108 109 108 108 108 108 108 108 109 109 110 110 110 110 110 110 111 111 111 111 110 110 110 110 109 109 109 110 110 110 110 110 110 110 110 110 111 111 111 111 111 111 111 111 111 112 112 112 113
117 115 114 113 113 113 113 113 113 113 113 113 113 112 112 112 112 111 111 110 109 108 108 109 109 109 108 107 107 107 108 109 110 109 108 107 108 109 109 109 109 109 110 109 108 109 110 111 111 111 110 110 111 111 111 111 111 111 111 111 111 110 111 110 110 110 110 111 111 111 111 111 111 111 112 112 112 112 112 112 112 112 113 113 114 115
122 119 116 115 114 113 113 114 114 114 113 113 114 114 114 114 113 112 111 111 109 109 109 109 109 109 109 108 108 108 109 110 110 110 109 108 109 110 110 110 110 110 111 110 110 109 110 111 112 112 111 111 111 112 112 112 112 112 112 111 111 111 112 111 111 111 111 111 111 112 112 112 112 112 112 113 113 113 113 113 113 114 114 115 115 116
128 124 121 118 116 115 114 114 114 114 114 114 114 115 115 115 114 113 112 111 110 109 109 109 109 109 109 109 109 109 109 110 110 110 109 109 109 110 110 110 110 110 111 111 111 111 111 111 112 112 112 112 112 113 113 113 112 112 112 112 112 112 112 112 112 112 112 112 112 113 113 113 113 113 113 114 114 114 114 114 115 115 116 116 117 117
134 131 127 124 120 118 116 115 115 115 115 115 115 115 116 115 115 114 112 112 111 111 110 110 110 109 109 109 109 109 110 110 111 110 110 109 110 110 111 111 111 111 111 111 111 111 112 112 112 113 113 113 114 113 113 113 113 113 113 112 112 113 113 113 113 113 113 113 113 114 114 114 114 114 114 115 115 115 115 116 116 117 117 117 118 119
137 136 133 130 127 123 121 118 117 117 116 116 116 116 116 116 115 114 113 112 112 112 112 112 111 111 110 110 110 110 111 111 112 111 111 110 110 111 111 111 112 112 112 112 112 112 112 113 113 113 113 114 114 114 114 114 114 113 113 113 113 113 114 114 114 114 115 115 115 115 115 115 116 116 116 116 116 116 116 117 117 118 119 119 120 121
140 139 137 135 133 130 127 124 122 120 119 118 118 118 117 116 115 114 113 113 113 113 113 113 113 112 112 111 111 111 112 113 113 112 112 111 111 112 112 112 113 113 112 113 113 113 113 113 114 114 114 114 114 115 115 115 115 114 114 114 114 114 115 115 115 116 116 116 116 117 117 117 117 117 117 117 117 117 117 118 119 120 121 123 124 126
142 141 140 139 138 136 134 131 128 126 124 123 121 120 119 117 116 115 114 114 114 114 114 114 114 113 113 113 112 112 113 113 113 112 112 112 112 112 112 113 113 114 113 113 113 114 114 114 114 115 115 115 115 115 116 116 116 116 116 116 116 116 116 117 117 117 117 117 117 118 118 118 117 117 117 118 118 119 120 121 123 124 126 128 130 132
145 144 143 142 141 140 138 137 135 133 131 128 126 125 123 121 119 118 117 116 115 115 115 115 115 115 115 114 114 114 114 114 113 113 113 113 113 113 113 113 114 114 114 114 114 114 114 114 115 115 116 116 116 116 117 117 117 117 117 118 118 118 118 118 118 118 118 118 118 118 118 118 118 118 119 120 121 122 124 126 128 130 132 134 136 137
148 147 145 144 143 142 142 141 140 139 137 135 133 131 129 127 124 123 121 120 119 118 118 118 117 117 117 117 116 116 116 115 115 115 115 115 114 114 114 114 114 115 115 115 115 115 115 115 115 116 116 117 117 117 118 118 118 118 118 119 119 119 120 120 120 120 120 120 120 120 120 120 120 121 122 124 125 127 130 132 134 136 137 139 140 141
151 150 149 147 146 145 144 144 143 143 142 140 139 137 135 133 131 129 127 125 124 123 122 121 121 120 120 119 119 119 118 118 118 117 117 116 116 116 116 115 116 116 117 117 116 116 116 116 116 117 117 117 117 118 118 118 119 119 119 119 120 121 122 122 122 122 122 122 122 122 123 123 124 125 127 129 131 133 135 137 138 140 141 142 143 144
154 153 152 151 150 149 147 147 146 145 144 144 143 142 140 139 137 135 133 132 130 128 127 126 125 125 124 124 123 123 122 122 121 121 120 120 119 119 118 118 118 119 119 119 119 119 119 119 118 118 118 118 119 119 119 120 120 121 121 121 122 123 124 125 125 126 126 126 126 127 127 128 129 131 132 134 136 137 139 140 141 142 143 144 145 146
158 156 155 154 153 152 151 150 148 147 146 146 145 145 144 143 142 140 139 137 136 135 133 132 131 130 129 129 128 128 127 127 126 125 125 124 124 123 123 123 123 123 123 124 124 124 123 123 122 121 121 121 121 122 122 123 124 124 124 125 126 127 128 129 130 130 130 131 131 132 132 133 134 135 137 138 139 140 141 142 143 144 145 146 147 148
161 160 159 158 157 156 154 153 151 150 149 148 148 147 147 146 145 144 143 142 141 140 139 138 137 135 134 134 133 133 132 132 131 131 130 129 129 128 128 128 128 128 129 129 129 129 129 128 127 126 126 126 126 126 126 127 128 128 129 130 130 131 132 133 134 135 135 135 136 136 136 137 138 138 139 140 141 142 143 144 145 145 146 147 148 149
164 163 163 162 161 160 158 156 154 152 152 151 150 150 150 149 148 147 146 145 144 143 143 142 141 140 139 139 138 138 137 137 136 135 135 134 133 133 133 133 133 134 134 135 135 135 134 133 131 131 131 131 131 131 131 132 132 133 133 134 135 136 137 138 139 139 139 140 140 140 140 140 140 141 142 142 143 144 145 146 146 147 148 149 150 150
165 165 165 165 164 163 161 159 157 156 155 154 154 153 153 152 151 150 149 148 147 146 145 145 144 143 143 143 142 142 141 141 140 140 139 138 138 137 137 137 137 138 139 140 140 140 139 137 136 135 135 135 136 136 136 136 137 137 138 138 139 140 141 142 142 143 143 144 144 144 144 144 144 144 145 145 146 147 148 149 149 150 151 152 152 152
165 166 167 167 166 165 164 162 161 160 159 158 157 157 156 155 154 153 152 151 150 149 148 148 147 146 145 145 145 145 145 144 144 144 143 142 142 141 141 141 141 142 143 144 145 145 144 142 141 140 140 140 140 140 140 140 140 141 141 142 143 143 144 145 146 147 147 147 148 148 148 148 148 148 149 149 150 151 152 152 153 153 154 154 154 154
162 164 166 167 167 166 166 165 163 162 162 161 160 160 159 158 157 156 155 154 153 152 152 151 150 149 148 148 148 147 147 147 147 147 146 146 145 145 145 145 145 146 147 148 150 150 150 149 147 146 146 145 145 145 145 145 145 145 145 145 146 146 147 148 149 150 151 151 152 152 152 152 152 152 152 153 153 154 154 154 154 154 154 154 153 153
159 161 163 165 166 166 166 166 165 164 163 163 163 162 162 161 160 159 158 157 156 156 155 154 153 152 152 151 151 150 150 150 150 150 150 149 149 149 149 149 150 150 152 153 154 155 155 154 154 153 152 151 151 150 150 150 149 149 149 149 150 150 151 151 152 153 154 154 155 155 155 155 154 154 154 154 154 154 154 154 153 153 152 152 151 151
155 157 159 161 162 164 165 165 165 165 165 164 164 164 163 163 162 161 161 160 159 159 158 157 156 155 155 154 154 153 153 153 153 153 153 153 153 153 153 154 154 155 156 157 157 158 158 158 158 157 156 155 154 154 154 153 153 153 152 152 153 153 153 154 154 155 155 155 155 155 155 154 154 153 153 152 152 152 152 152 151 151 150 150 149 148
150 152 154 156 157 159 161 162 163 164 164 164 164 164 164 163 163 163 162 162 162 161 161 160 159 158 158 157 157 156 156 156 156 156 156 157 157 157 157 157 158 158 159 159 160 160 160 160 159 158 157 156 155 155 154 154 154 154 154 154 154 154 154 154 154 154 154 154 154 153 153 152 152 151 151 150 150 150 150 149 149 149 148 147 147 146
145 147 149 150 152 154 156 157 158 160 161 162 163 163 164 163 163 163 163 163 163 163 163 162 161 161 160 160 159 159 159 159 159 159 159 159 160 159 160 160 160 160 160 161 160 160 160 159 159 158 157 157 156 155 154 154 154 154 154 154 154 153 153 153 153 153 152 152 151 151 150 150 149 149 148 148 147 147 147 147 147 146 146 145 144 144
Wind_Direction
238 238 238 239 240 240 241 242 242 243 244 245 246 246 247 247 248 248 249 249 250 250 251 252 253 254 254 255 256 256 257 257 258 258 259 259 260 260 260 261 261 262 263 264 264 265 265 266 266 267 268 269 269 270 271 272 273 274 274 275 276 277 278 279 279 279 279 279 279 280 280 281 282 282 283 283 284 285 286 287 288 290 291 292 293 293
238 238 238 239 240 240 241 241 242 243 244 244 245 246 246 247 247 248 248 249 250 250 251 252 253 254 255 255 256 256 257 257 258 258 259 259 260 260 260 261 261 262 262 263 264 264 265 266 266 267 268 269 269 270 271 272 273 273 274 275 276 277 278 279 279 279 279 279 279 280 280 281 281 282 282 283 284 285 286 287 288 289 290 291 292 293
239 239 239 239 240 240 241 242 242 243 243 244 245 245 246 247 247 248 248 249 250 250 251 252 253 254 255 256 256 257 257 257 258 258 259 259 260 260 260 261 261 262 262 263 263 264 265 266 266 267 268 268 269 270 271 271 272 273 274 275 277 278 279 279 279 278 278 278 279 279 280 280 281 281 282 283 284 284 286 287 288 289 290 291 292 292
239 239 239 240 240 241 241 242 243 243 244 245 245 246 246 247 248 248 249 249 250 251 251 252 253 254 255 255 256 257 257 257 258 258 259 259 260 260 261 261 262 262 263 263 264 264 265 266 266 267 267 268 269 270 270 271 272 273 274 276 277 278 278 278 278 278 278 278 278 279 279 280 281 281 282 283 283 284 286 287 288 289 290 290 291 292
240 240 240 241 241 242 242 243 244 244 245 246 246 247 247 248 248 249 250 250 251 251 252 252 253 254 254 255 256 256 257 257 258 258 259 259 260 260 261 261 262 262 263 263 264 264 265 265 266 267 267 268 269 270 270 272 273 274 275 276 277 278 278 278 277 277 277 278 278 279 279 280 280 281 282 282 283 284 285 286 287 288 289 290 291 291
241 241 242 242 242 243 243 244 244 245 246 246 247 247 248 249 249 250 250 251 251 252 252 252 253 254 254 255 255 256 256 257 257 258 258 259 260 260 260 261 261 262 263 263 264 264 265 265 266 266 267 268 269 270 271 272 273 274 275 276 277 277 277 277 277 277 277 277 278 278 279 279 280 281 281 282 283 284 285 286 287 288 289 290 290 291
242 242 243 243 243 244 244 244 245 245 246 247 247 248 248 249 249 250 250 251 251 252 252 252 253 253 254 254 255 255 256 257 257 258 258 259 259 260 260 261 261 262 262 263 264 264 265 265 266 267 268 268 269 270 271 272 273 274 275 276 276 276 276 276 276 276 277 277 277 278 279 279 280 281 281 282 283 284 285 286 287 287 288 289 290 291
243 243 244 244 244 244 244 245 245 245 246 246 247 248 248 249 249 250 250 251 251 252 252 252 253 253 253 254 254 255 255 256 257 257 258 259 259 259 260 261 261 262 263 263 264 264 265 266 267 267 268 269 270 271 272 272 273 274 275 275 276 276 276 276 276 276 276 277 277 278 278 279 280 280 281 282 283 284 285 286 286 287 288 289 290 291
243 244 244 244 244 244 244 244 245 245 246 246 247 247 248 248 249 249 250 250 251 251 251 252 252 253 253 253 254 254 255 256 256 257 258 258 259 259 260 261 261 262 263 264 264 265 266 267 267 268 269 270 271 271 272 272 273 274 274 275 275 275 275 275 276 276 276 277 277 278 278 279 280 280 281 282 283 284 284 285 286 287 288 289 289 290
244 244 244 245 245 244 244 245 245 245 246 246 247 248 248 248 249 249 249 250 250 251 251 251 252 252 253 253 254 254 255 255 256 257 258 258 259 260 260 261 262 262 263 264 265 266 266 267 268 269 270 270 271 271 272 273 273 274 274 274 275 275 275 275 276 276 276 277 277 278 278 279 280 280 281 282 283 283 284 285 286 286 287 288 289 290
244 244 245 245 245 245 245 245 245 246 246 247 248 248 249 249 249 250 250 250 250 251 251 251 252 252 253 253 254 254 255 255 256 257 258 258 259 260 261 262 262 263 264 265 265 266 267 268 268 269 270 270 271 271 272 273 273 274 274 274 274 274 275 275 276 276 277 277 278 278 279 279 280 280 281 282 282 283 284 284 285 286 287 288 289 290
244 244 245 245 246 246 246 246 246 247 247 248 248 249 250 250 250 251 251 251 251 251 251 252 252 252 253 253 254 254 255 256 256 257 258 259 260 261 261 262 263 264 264 265 266 267 267 268 269 269 270 270 271 272 272 273 273 274 274 274 274 274 275 275 276 276 277 277 278 278 279 279 280 280 281 282 282 283 283 284 285 286 287 288 289 289
244 244 245 246 246 247 247 247 247 248 248 248 249 250 250 251 251 251 252 252 252 252 252 252 253 253 253 253 254 255 255 256 257 258 259 260 260 261 262 263 264 264 265 266 266 267 267 268 269 269 270 270 271 272 272 273 273 274 274 274 274 275 275 275 276 276 277 277 278 278 279 279 280 280 281 282 282 283 283 284 285 286 287 287 288 289
244 245 245 246 247 247 247 248 248 248 248 249 249 250 251 251 252 252 252 253 253 253 253 253 254 254 254 254 255 255 256 257 258 258 259 260 261 262 263 263 264 265 265 266 267 267 268 268 269 269 270 270 271 272 272 273 273 274 274 275 275 275 276 276 276 277 277 278 278 279 279 279 280 281 281 282 282 283 284 284 285 286 287 287 288 289
244 245 246 246 247 247 248 248 248 249 249 249 250 250 251 252 252 253 253 253 253 254 254 254 255 255 255 256 256 257 257 258 258 259 260 261 261 262 263 264 264 265 266 266 267 267 268 268 269 269 270 270 271 272 272 273 273 274 274 275 275 276 276 276 277 277 277 278 278 279 279 280 280 281 281 282 282 283 284 284 285 286 287 287 288 289
244 245 246 246 247 248 248 249 249 249 249 250 250 251 251 252 252 253 253 254 254 254 255 255 255 256 256 257 257 258 258 259 259 260 261 261 262 262 263 264 264 265 266 266 267 267 268 268 269 269 270 270 271 272 272 273 274 274 275 275 275 276 276 277 277 277 278 278 278 279 279 280 280 281 281 282 283 283 284 285 285 286 287 287 288 288
244 245 246 246 247 248 248 249 249 250 250 250 251 251 251 252 252 253 253 254 254 255 255 255 256 256 257 258 258 258 259 260 260 261 261 262 262 263 263 264 264 265 266 266 266 267 267 268 269 269 270 271 271 272 273 273 274 274 275 275 276 276 276 277 277 277 278 278 278 279 279 280 280 281 282 282 283 283 284 285 285 286 286 287 288 288
244 245 246 246 247 248 249 249 250 250 250 251 251 251 252 252 252 253 254 254 255 255 255 256 256 256 257 257 258 259 259 260 260 261 261 262 262 263 263 264 264 265 265 266 266 267 267 268 269 269 270 271 272 272 273 274 274 275 275 275 276 276 276 277 277 277 278 278 278 279 279 280 280 281 282 282 283 284 284 285 285 286 286 287 287 288
244 245 245 246 247 248 248 249 250 250 250 251 251 252 252 252 253 253 254 254 255 255 255 256 256 256 257 257 258 258 259 259 260 261 261 262 262 263 263 264 264 265 265 266 266 267 268 268 269 270 271 271 272 273 273 274 274 275 275 275 275 276 276 276 277 277 278 278 278 279 279 280 281 281 282 282 283 284 284 284 285 285 286 286 287 287
244 244 245 246 246 247 248 249 249 250 250 251 251 252 252 252 253 253 254 254 255 255 255 256 256 257 257 257 258 258 259 259 260 260 261 261 262 263 263 264 264 265 265 266 266 267 268 269 269 270 271 272 272 273 273 274 274 274 275 275 275 276 276 276 277 277 277 278 278 279 279 280 281 281 282 282 283 283 284 284 284 285 285 286 286 287
243 244 245 245 246 247 248 248 249 250 250 251 251 252 252 253 253 253 254 254 255 255 256 256 256 257 257 257 258 258 258 259 259 260 261 261 262 262 263 264 264 265 265 266 267 268 268 269 270 270 271 272 272 273 273 273 274 274 274 275 275 275 276 276 276 277 277 278 278 279 279 280 281 281 282 282 282 283 283 284 284 285 285 286 286 286
243 244 244 245 246 246 247 248 249 249 250 250 251 252 252 253 253 253 254 254 255 255 256 256 256 257 257 257 258 258 259 259 260 260 261 262 262 263 263 264 264 265 266 266 267 268 268 269 270 270 271 271 272 272 273 273 273 274 274 274 275 275 275 276 276 277 277 278 278 279 279 280 280 281 281 282 282 282 283 283 284 284 285 285 286 286
243 243 244 244 245 246 246 247 248 249 249 250 251 251 252 252 253 253 254 254 255 255 255 256 256 257 257 258 258 258 259 259 260 260 261 262 262 263 263 264 264 265 266 266 267 268 268 269 269 270 270 271 271 272 272 272 273 273 274 274 274 275 275 276 276 277 277 278 278 279 279 280 280 281 281 281 282 282 283 283 284 284 284 285 285 286
242 243 243 244 244 245 246 247 248 248 249 250 251 251 252 252 253 253 254 254 255 255 255 256 256 257 257 257 258 258 259 259 260 260 261 262 262 263 263 264 264 265 265 266 267 267 268 268 269 269 270 270 271 271 272 272 272 273 273 274 274 275 275 276 276 277 277 278 278 278 279 279 280 280 281 281 281 282 282 283 283 284 284 285 285 285
241 242 242 243 244 245 246 246 247 248 249 250 250 251 252 252 253 253 254 254 254 255 255 256 256 256 257 257 258 258 259 259 260 260 261 261 262 263 263 264 264 265 265 266 267 267 268 268 268 269 269 270 270 271 271 272 272 273 273 273 274 275 275 276 276 277 277 277 278 278 279 279 280 280 281 281 281 282 282 283 283 284 284 284 285 285
240 241 242 243 244 244 245 246 247 248 248 249 250 251 251 252 252 253 253 253 254 254 255 255 255 256 256 257 257 258 258 259 259 260 260 261 262 262 263 264 264 265 265 266 267 267 267 268 268 269 269 270 270 271 271 271 272 272 273 273 274 274 275 275 276 276 277 277 278 278 279 279 280 280 281 281 281 282 282 283 283 283 284 284 285 285
240 241 242 242 243 244 245 245 246 247 247 248 249 250 250 251 252 252 252 253 253 254 254 255 255 256 256 257 257 258 258 259 259 259 260 260 261 262 263 263 264 264 265 266 266 267 267 268 268 269 269 269 270 270 271 271 272 272 273 273 274 274 275 275 276 276 277 277 278 278 279 279 280 280 281 281 281 282 282 283 283 283 284 284 285 285
239 240 241 242 243 244 244 245 246 246 246 247 248 249 249 250 250 251 252 252 253 253 254 254 255 255 256 256 257 257 258 258 259 259 260 260 260 261 262 263 263 264 265 265 266 267 267 267 268 268 269 269 270 270 270 271 271 272 272 273 273 274 274 275 275 276 276 277 277 278 279 279 280 280 280 281 281 282 282 282 283 283 284 284 284 285
239 240 241 242 242 243 244 244 245 245 246 246 246 247 248 249 249 250 251 252 252 253 253 254 254 255 255 256 257 257 257 258 258 259 259 259 260 261 262 262 263 263 264 265 265 266 266 267 267 268 268 269 269 270 270 271 271 271 272 272 273 273 274 274 275 275 276 277 277 278 278 279 279 280 280 281 281 281 282 282 282 283 283 284 284 285
238 239 240 241 241 242 243 243 244 244 245 245 246 246 247 248 248 249 250 251 252 252 253 253 254 254 255 255 256 256 257 257 258 258 258 259 259 260 261 261 262 263 263 264 265 265 266 266 267 267 268 268 269 269 270 270 271 271 272 272 272 273 273 274 274 275 276 276 277 277 278 278 279 279 280 280 281 281 281 282 282 283 283 284 284 285
237 238 239 240 240 241 242 242 243 244 244 245 245 246 246 247 247 248 250 250 251 251 252 253 253 254 254 254 255 255 256 257 257 258 258 258 259 260 260 261 261 262 263 263 263 264 265 266 266 267 267 268 268 269 269 270 270 271 271 272 272 273 273 274 274 275 276 276 277 277 278 278 279 279 280 280 280 281 281 282 282 282 283 284 284 285
236 237 238 239 240 240 241 241 242 243 244 244 245 245 246 246 247 247 248 249 250 251 251 252 252 253 253 254 254 254 255 256 257 257 257 258 258 259 260 260 261 261 262 263 263 263 264 265 266 266 267 267 267 268 269 269 270 271 271 272 272 273 273 274 274 275 275 276 276 277 277 278 278 279 279 280 280 281 281 281 282 282 283 284 284 285
236 236 237 238 238 239 240 241 241 242 243 244 244 245 245 246 246 247 247 248 249 249 250 251 251 252 253 253 253 254 255 255 256 257 257 257 258 258 259 260 260 261 262 262 262 263 263 264 265 266 266 267 267 268 268 269 270 270 271 271 272 273 273 274 274 275 275 276 276 277 277 278 278 279 279 280 280 280 281 281 282 282 283 284 284 285
237 237 237 237 237 238 239 240 240 241 242 242 243 244 245 245 246 246 247 247 248 248 249 249 250 251 251 252 253 253 254 255 255 256 256 256 257 258 258 259 260 260 261 262 262 263 263 264 264 265 266 266 267 268 268 269 269 270 270 271 271 272 273 273 274 274 275 275 276 276 277 277 278 278 279 279 280 280 281 281 282 282 283 283 284 284
237 237 237 237 237 237 238 239 239 240 241 241 242 243 244 245 245 246 246 247 247 247 248 248 249 250 250 251 252 253 253 254 255 255 256 256 256 257 258 258 259 260 260 261 262 262 263 263 264 265 265 266 267 267 268 268 269 269 270 271 271 272 272 273 274 274 275 275 276 276 277 277 278 278 279 279 280 280 281 281 281 282 282 283 283 283
237 237 238 238 238 238 238 238 238 239 240 241 241 242 243 244 245 245 246 246 246 247 247 248 248 249 250 250 251 252 253 254 254 255 255 255 256 256 257 258 259 259 260 261 261 262 263 263 264 265 265 266 266 267 268 268 269 269 270 270 271 271 272 273 273 274 275 275 276 276 277 278 278 279 279 279 280 280 280 281 281 281 282 282 283 283
237 237 238 238 238 238 238 238 238 239 239 240 241 242 242 243 244 244 245 245 245 246 246 247 247 248 249 249 250 251 252 253 254 254 255 255 256 256 257 258 259 259 260 260 261 262 262 263 264 264 265 265 266 266 267 268 269 269 270 270 271 271 272 272 273 274 274 275 275 276 277 277 278 278 279 279 279 280 280 280 280 281 281 282 282 283
237 237 238 238 239 239 239 239 239 239 239 240 240 241 242 242 243 243 244 244 245 245 246 246 247 247 248 249 249 250 251 252 253 253 254 255 255 256 256 257 258 259 260 260 261 261 262 262 263 264 264 265 265 266 267 268 268 269 270 270 271 271 272 272 273 273 274 274 275 275 276 277 277 277 278 278 278 279 279 279 280 280 281 282 282 283
237 237 238 238 239 239 239 240 240 240 240 241 241 241 242 242 242 243 243 244 244 245 245 246 247 247 248 248 249 249 250 251 252 252 253 254 255 255 256 257 258 259 259 260 260 261 261 262 262 263 264 265 265 266 267 268 268 269 269 270 271 271 272 272 273 273 274 274 274 275 275 276 276 276 277 277 277 278 279 279 280 281 281 282 283 284
237 237 238 238 239 239 240 240 240 241 241 241 242 242 242 242 243 243 243 244 244 244 245 246 246 247 248 248 249 249 250 250 251 252 253 253 254 255 256 256 257 258 259 259 260 260 260 261 262 263 263 264 265 266 267 267 268 268 269 270 270 271 271 272 272 273 273 274 274 274 275 275 276 276 276 277 278 278 279 280 281 282 282 283 284 285
238 238 238 239 239 239 240 240 240 241 241 242 242 242 243 243 243 243 244 244 244 245 245 246 246 247 248 248 249 249 250 250 251 252 252 253 254 254 255 256 257 257 258 259 259 259 260 260 261 262 263 263 264 265 266 267 267 268 268 269 269 270 271 272 272 272 273 273 274 274 274 275 276 276 277 278 279 279 280 281 282 283 283 284 285 286
238 238 239 239 239 240 240 240 241 241 241 242 242 243 243 243 244 244 244 244 245 245 245 246 246 247 248 248 249 249 250 250 251 252 252 253 254 254 255 256 256 257 258 258 259 259 259 260 260 261 262 263 263 264 265 266 266 267 268 268 269 270 271 271 272 272 272 273 273 274 275 275 276 277 278 278 279 280 281 282 282 283 284 284 285 286
238 239 239 240 240 240 240 240 241 241 242 242 242 243 243 244 244 244 245 245 245 246 246 246 247 247 248 248 249 250 250 251 251 252 252 253 254 254 255 256 256 257 258 258 258 259 259 260 260 261 262 263 263 264 264 265 266 267 267 268 269 269 270 271 271 272 273 273 274 274 275 276 276 277 278 279 279 280 281 281 282 283 283 284 285 285
238 239 239 240 240 241 241 241 241 241 242 242 243 243 243 244 244 245 245 245 246 246 246 247 247 248 248 249 249 250 251 251 252 252 253 253 254 255 255 256 257 257 258 258 259 259 259 260 261 261 262 263 263 264 264 265 266 267 267 268 269 269 270 271 272 272 273 273 274 275 275 276 277 277 278 279 279 280 281 281 282 283 283 284 284 285
237 238 239 240 240 241 241 241 242 242 242 243 243 243 244 244 244 245 245 245 246 246 247 247 247 248 248 249 249 250 251 251 252 253 253 254 254 255 256 256 257 258 258 259 259 260 260 260 261 262 262 263 263 264 265 265 266 267 268 268 269 270 271 271 272 273 273 274 274 275 276 276 277 277 278 279 279 280 281 281 282 283 283 284 284 285
237 238 239 239 240 241 241 242 242 243 243 243 244 244 244 245 245 245 245 246 246 246 247 247 248 248 248 249 250 250 251 252 252 253 253 254 254 255 256 256 257 258 259 260 260 261 261 261 262 262 263 263 264 264 265 266 267 267 268 269 270 270 271 272 273 273 274 274 275 276 276 277 277 278 278 279 279 280 281 281 282 283 283 284 284 285
237 238 238 239 240 240 241 242 242 243 243 244 244 245 245 245 246 246 246 246 247 247 247 248 248 248 249 249 250 251 251 252 252 253 254 254 255 255 256 257 257 258 259 260 261 261 262 262 263 263 263 264 264 265 266 266 267 268 268 269 270 270 271 272 273 274 274 275 276 276 277 278 278 278 279 279 280 280 281 281 282 282 283 284 284 285
238 238 238 239 240 240 241 241 242 242 243 244 244 245 245 246 246 247 247 247 247 248 248 248 248 249 249 250 250 251 252 252 253 254 254 255 255 256 256 257 258 258 259 260 261 262 263 263 264 264 264 265 265 265 266 267 267 268 268 269 270 271 271 272 273 274 275 276 276 277 278 278 279 279 279 280 280 280 281 281 282 283 283 284 284 285
238 239 239 239 240 240 241 241 241 242 243 243 244 245 246 246 247 247 248 248 248 248 249 249 249 250 250 250 251 252 252 253 254 254 255 256 256 257 257 258 259 259 260 261 262 263 263 264 265 265 265 266 266 266 267 267 268 268 269 269 270 271 271 272 273 274 275 276 276 277 278 278 279 279 280 280 280 281 281 282 282 283 283 284 284 285
239 239 239 240 240 241 241 241 242 242 242 243 244 245 246 246 247 248 248 248 249 249 250 250 250 251 251 251 252 253 253 254 254 255 256 256 257 258 258 259 260 260 261 261 262 263 264 264 265 266 266 267 267 267 267 268 268 269 269 270 270 271 272 272 273 274 275 275 276 277 277 278 279 279 280 280 280 281 282 282 283 283 283 284 284 285
239 239 240 240 241 241 241 242 242 242 243 243 244 244 245 246 247 248 248 249 249 250 250 251 251 252 252 253 253 254 254 255 255 256 257 257 258 259 259 260 260 261 261 262 263 263 264 265 265 266 267 267 267 268 268 268 269 269 270 270 271 272 272 273 273 274 275 275 276 277 277 278 279 279 280 280 281 281 282 282 283 283 284 284 285 285
Height
10673 10674 10676 10679 10681 10682 10683 10686 10688 10689 10690 10691 10692 10694 10696 10698 10699 10701 10703 10704 10706 10708 10709 10711 10712 10713 10714 10715 10717 10718 10719 10720 10721 10722 10722 10723 10723 10724 10725 10726 10728 10729 10730 10731 10732 10733 10734 10735 10737 10739 10740 10741 10741 10740 10740 10740 10740 10741 10741 10741 10742 10743 10743 10744 10744 10744 10743 10743 10742 10741 10740 10739 10739 10739 10738 10737 10736 10735 10734 10733 10732 10731 10730 10729 10728 10726
10666 10668 10670 10673 10674 10676 10678 10679 10682 10684 10684 10684 10686 10688 10690 10692 10694 10696 10698 10699 10701 10703 10704 10706 10708 10708 10709 10711 10712 10714 10714 10716 10716 10717 10718 10718 10719 10719 10721 10721 10723 10724 10726 10727 10727 10728 10728 10730 10733 10734 10735 10736 10736 10736 10736 10736 10736 10736 10736 10737 10738 10739 10739 10739 10739 10739 10738 10738 10737 10736 10736 10735 10734 10734 10733 10733 10731 10731 10729 10728 10728 10726 10726 10725 10724 10722
10659 10662 10664 10666 10669 10671 10672 10674 10676 10678 10678 10679 10681 10683 10684 10687 10689 10691 10693 10694 10696 10698 10701 10702 10703 10704 10705 10706 10708 10709 10710 10711 10712 10713 10713 10714 10714 10715 10716 10717 10718 10719 10722 10723 10723 10723 10724 10725 10728 10729 10731 10731 10731 10731 10731 10731 10731 10731 10731 10733 10733 10734 10734 10735 10734 10734 10733 10733 10732 10731 10731 10731 10730 10729 10729 10728 10727 10726 10725 10724 10723 10722 10721 10721 10719 10718
10654 10656 10658 10661 10664 10666 10668 10669 10671 10672 10673 10674 10676 10678 10680 10683 10684 10686 10688 10690 10692 10694 10696 10698 10699 10700 10701 10702 10703 10704 10706 10706 10707 10708 10708 10709 10709 10710 10711 10712 10713 10714 10716 10718 10718 10719 10720 10721 10723 10724 10726 10726 10726 10726 10726 10726 10726 10726 10727 10728 10729 10730 10730 10730 10729 10728 10728 10728 10727 10727 10726 10726 10725 10725 10724 10723 10723 10721 10720 10719 10718 10718 10717 10716 10715 10714
10648 10651 10653 10657 10660 10662 10663 10665 10666 10668 10668 10669 10671 10673 10676 10678 10680 10681 10684 10686 10688 10689 10691 10693 10695 10696 10697 10698 10699 10700 10701 10701 10702 10703 10704 10704 10705 10706 10706 10707 10708 10709 10711 10713 10714 10714 10716 10717 10718 10719 10721 10721 10721 10721 10721 10721 10721 10722 10723 10724 10725 10726 10725 10725 10724 10723 10723 10723 10723 10723 10722 10721 10721 10720 10719 10719 10718 10716 10715 10714 10713 10713 10712 10711 10711 10709
10643 10647 10650 10654 10656 10657 10658 10660 10662 10663 10664 10664 10666 10668 10671 10673 10675 10677 10679 10681 10682 10684 10686 10688 10689 10691 10692 10693 10694 10695 10695 10696 10697 10698 10699 10699 10700 10701 10701 10702 10703 10704 10706 10708 10709 10710 10711 10712 10713 10714 10715 10716 10716 10716 10716 10716 10716 10718 10718 10719 10720 10720 10720 10720 10719 10719 10719 10718 10718 10718 10718 10717 10716 10716 10714 10714 10713 10711 10711 10709 10709 10708 10707 10706 10706 10704
10640 10644 10648 10650 10651 10652 10654 10655 10656 10657 10658 10659 10661 10663 10666 10668 10670 10672 10673 10675 10677 10679 10681 10683 10684 10685 10686 10688 10689 10689 10690 10691 10692 10693 10694 10694 10695 10696 10696 10697 10698 10699 10701 10703 10704 10705 10706 10707 10708 10709 10710 10711 10711 10711 10711 10711 10712 10713 10714 10714 10715 10715 10715 10715 10714 10714 10714 10714 10714 10713 10713 10712 10711 10711 10709 10709 10708 10707 10706 10704 10704 10703 10702 10701 10700 10699
10637 10640 10643 10646 10647 10648 10649 10650 10651 10652 10653 10654 10655 10658 10659 10662 10664 10666 10668 10670 10672 10674 10676 10677 10678 10679 10681 10682 10683 10684 10685 10686 10687 10688 10688 10689 10690 10690 10691 10692 10693 10694 10696 10697 10698 10699 10701 10702 10703 10704 10704 10705 10705 10706 10706 10707 10708 10708 10709 10709 10709 10710 10710 10710 10710 10710 10709 10709 10709 10708 10708 10707 10706 10706 10705 10704 10703 10702 10701 10699 10698 10698 10697 10696 10695 10694
10632 10634 10637 10639 10641 10643 10644 10645 10645 10646 10648 10649 10649 10651 10653 10656 10658 10660 10663 10664 10666 10668 10670 10671 10673 10673 10674 10676 10677 10679 10679 10681 10681 10682 10683 10684 10684 10685 10686 10687 10688 10689 10691 10692 10693 10694 10694 10696 10697 10698 10699 10699 10700 10701 10703 10703 10703 10703 10704 10704 10704 10705 10705 10705 10705 10704 10704 10704 10704 10703 10703 10702 10701 10701 10700 10699 10698 10697 10696 10694 10693 10693 10691 10691 10690 10689
10626 10628 10630 10632 10634 10637 10638 10639 10639 10641 10643 10645 10645 10646 10648 10650 10653 10654 10657 10659 10661 10662 10664 10666 10666 10667 10668 10670 10671 10673 10674 10675 10676 10677 10678 10678 10679 10679 10681 10681 10683 10684 10685 10686 10688 10688 10689 10690 10691 10692 10693 10694 10694 10696 10698 10698 10698 10699 10699 10699 10700 10700 10699 10699 10699 10699 10699 10699 10698 10698 10698 10697 10696 10696 10695 10694 10693 10692 10691 10689 10688 10688 10687 10686 10685 10684
10619 10621 10623 10625 10628 10630 10632 10633 10633 10634 10638 10641 10642 10643 10644 10645 10647 10649 10651 10653 10654 10656 10658 10659 10661 10661 10663 10664 10665 10667 10668 10669 10670 10671 10672 10673 10673 10674 10675 10676 10677 10678 10680 10681 10682 10683 10684 10684 10685 10686 10687 10688 10689 10690 10691 10692 10693 10693 10694 10694 10695 10695 10694 10694 10694 10694 10694 10694 10693 10693 10692 10691 10691 10690 10689 10688 10687 10686 10685 10684 10683 10683 10682 10681 10680 10679
10613 10614 10616 10618 10620 10623 10625 10626 10627 10629 10632 10634 10637 10638 10639 10640 10641 10644 10646 10647 10648 10650 10652 10653 10654 10656 10657 10658 10659 10661 10663 10664 10664 10666 10666 10668 10668 10669 10670 10671 10672 10673 10674 10676 10676 10678 10678 10678 10679 10681 10682 10683 10683 10684 10685 10686 10687 10688 10688 10689 10689 10689 10689 10689 10689 10689 10689 10688 10688 10687 10686 10685 10684 10684 10683 10682 10681 10681 10680 10679 10678 10678 10677 10676 10675 10674
10606 10608 10609 10611 10613 10615 10617 10619 10622 10624 10626 10628 10629 10630 10632 10633 10636 10639 10641 10641 10642 10643 10645 10647 10648 10649 10651 10653 10654 10656 10657 10658 10659 10660 10661 10662 10663 10663 10664 10666 10666 10668 10669 10670 10671 10672 10673 10673 10674 10675 10676 10677 10678 10678 10679 10680 10681 10681 10682 10683 10683 10684 10684 10684 10684 10683 10683 10682 10681 10681 10680 10679 10679 10678 10677 10676 10676 10675 10674 10674 10673 10672 10671 10671 10669 10669
10601 10602 10604 10605 10606 10608 10609 10613 10615 10618 10619 10621 10622 10623 10626 10628 10631 10634 10635 10636 10636 10638 10639 10641 10642 10643 10644 10647 10649 10650 10651 10653 10653 10654 10655 10656 10656 10658 10659 10659 10660 10661 10662 10664 10665 10666 10666 10668 10668 10669 10670 10671 10672 10673 10673 10674 10674 10675 10676 10676 10677 10677 10678 10678 10678 10677 10676 10676 10675 10674 10674 10673 10673 10672 10671 10671 10670 10669 10669 10668 10668 10667 10666 10665 10664 10663
10594 10596 10598 10599 10600 10601 10603 10606 10608 10611 10613 10614 10616 10619 10622 10624 10626 10628 10629 10629 10630 10631 10634 10636 10636 10638 10639 10641 10643 10644 10646 10647 10648 10648 10649 10649 10651 10652 10653 10654 10654 10654 10656 10657 10658 10659 10660 10661 10662 10663 10664 10666 10666 10667 10668 10668 10669 10669 10670 10670 10671 10671 10671 10671 10671 10670 10670 10669 10669 10668 10668 10667 10666 10666 10665 10664 10664 10663 10663 10662 10661 10661 10660 10659 10658 10658
10589 10591 10593 10593 10594 10595 10597 10599 10602 10604 10606 10608 10611 10614 10617 10619 10619 10620 10622 10623 10624 10626 10629 10631 10632 10633 10633 10634 10637 10639 10641 10641 10641 10642 10643 10643 10644 10646 10647 10648 10648 10648 10649 10651 10652 10653 10654 10655 10656 10656 10658 10659 10660 10661 10661 10662 10663 10664 10664 10664 10664 10664 10664 10664 10664 10664 10663 10663 10663 10662 10661 10661 10660 10659 10659 10659 10658 10658 10657 10656 10656 10654 10654 10653 10653 10652
10584 10587 10588 10588 10589 10590 10591 10594 10596 10598 10599 10601 10604 10607 10610 10611 10612 10613 10616 10617 10619 10621 10623 10624 10627 10628 10628 10629 10631 10633 10635 10636 10636 10635 10636 10637 10637 10638 10641 10642 10642 10642 10643 10644 10645 10646 10647 10648 10649 10650 10651 10652 10653 10654 10655 10656 10657 10658 10658 10658 10658 10658 10658 10658 10658 10657 10656 10656 10656 10655 10655 10654 10654 10654 10653 10653 10652 10651 10651 10650 10649 10649 10648 10647 10646 10646
10578 10581 10582 10583 10584 10584 10586 10588 10590 10592 10593 10595 10598 10600 10603 10604 10606 10608 10610 10611 10613 10615 10616 10618 10620 10622 10623 10624 10625 10626 10629 10631 10631 10630 10631 10631 10631 10631 10634 10636 10636 10636 10636 10638 10639 10639 10641 10642 10643 10644 10645 10646 10647 10648 10649 10649 10651 10651 10651 10652 10652 10652 10651 10651 10651 10650 10650 10649 10649 10649 10649 10648 10648 10648 10647 10646 10646 10645 10644 10644 10643 10643 10641 10641 10640 10640
10572 10574 10576 10577 10578 10578 10580 10582 10584 10585 10587 10589 10591 10593 10596 10598 10599 10601 10604 10605 10607 10609 10611 10613 10614 10616 10618 10618 10619 10620 10623 10626 10627 10626 10626 10625 10625 10626 10628 10629 10630 10630 10630 10631 10632 10633 10634 10636 10636 10638 10639 10640 10641 10642 10643 10643 10644 10644 10644 10645 10645 10644 10644 10644 10644 10644 10643 10643 10643 10643 10643 10642 10642 10641 10641 10641 10640 10639 10638 10638 10637 10636 10635 10634 10634 10634
10565 10567 10569 10570 10571 10573 10574 10576 10577 10579 10581 10583 10585 10588 10590 10591 10593 10595 10598 10599 10601 10603 10604 10607 10608 10609 10610 10612 10614 10615 10617 10620 10621 10621 10619 10619 10619 10620 10621 10624 10624 10624 10624 10625 10626 10628 10629 10629 10630 10631 10633 10634 10634 10636 10636 10637 10637 10638 10638 10638 10638 10638 10638 10638 10638 10637 10637 10637 10637 10636 10636 10636 10636 10636 10635 10634 10634 10633 10633 10632 10631 10630 10629 10629 10628 10628
10559 10560 10561 10563 10565 10568 10568 10569 10571 10573 10576 10578 10581 10583 10584 10584 10586 10589 10591 10593 10596 10598 10599 10601 10602 10603 10603 10606 10608 10609 10610 10613 10614 10614 10613 10614 10614 10615 10616 10618 10619 10619 10619 10619 10619 10621 10623 10624 10624 10626 10627 10628 10629 10629 10629 10630 10630 10631 10631 10631 10631 10631 10631 10631 10631 10631 10631 10631 10631 10630 10630 10630 10630 10629 10629 10629 10628 10627 10626 10626 10625 10624 10623 10623 10622 10621
10551 10553 10554 10557 10559 10561 10562 10563 10565 10568 10571 10574 10576 10576 10576 10578 10580 10583 10584 10587 10589 10591 10593 10594 10595 10596 10598 10601 10602 10603 10604 10606 10608 10607 10606 10608 10609 10608 10609 10611 10613 10614 10613 10613 10613 10616 10618 10619 10619 10620 10621 10622 10623 10623 10623 10623 10624 10624 10624 10624 10624 10624 10624 10624 10624 10624 10624 10624 10624 10624 10624 10624 10624 10624 10623 10623 10622 10621 10620 10619 10619 10618 10617 10616 10616 10615
10545 10546 10548 10550 10553 10556 10557 10558 10560 10562 10564 10567 10568 10568 10569 10571 10574 10576 10579 10581 10583 10585 10586 10588 10589 10591 10594 10596 10596 10597 10598 10600 10601 10601 10601 10602 10601 10601 10602 10606 10608 10609 10608 10607 10609 10611 10613 10614 10614 10614 10615 10616 10616 10616 10616 10617 10617 10617 10617 10618 10618 10618 10618 10618 10618 10618 10618 10618 10618 10618 10618 10618 10618 10617 10617 10616 10616 10614 10614 10613 10612 10611 10611 10610 10609 10608
10539 10540 10542 10544 10548 10550 10553 10554 10555 10557 10559 10560 10561 10563 10564 10566 10569 10571 10573 10575 10577 10579 10581 10583 10585 10587 10588 10589 10589 10590 10592 10593 10595 10596 10596 10595 10594 10594 10596 10599 10602 10603 10602 10602 10604 10606 10608 10608 10608 10608 10609 10610 10611 10610 10610 10611 10611 10611 10611 10611 10611 10611 10611 10611 10611 10611 10612 10612 10611 10611 10611 10611 10611 10611 10610 10609 10609 10608 10608 10606 10606 10605 10604 10603 10603 10601
10532 10534 10536 10539 10542 10544 10547 10549 10550 10552 10553 10554 10556 10557 10559 10561 10563 10565 10567 10569 10571 10573 10575 10577 10579 10579 10579 10580 10582 10584 10585 10587 10589 10590 10590 10589 10588 10588 10590 10593 10596 10597 10596 10596 10598 10600 10601 10601 10601 10601 10603 10604 10604 10604 10604 10604 10604 10604 10604 10604 10605 10605 10605 10605 10605 10605 10605 10605 10605 10605 10604 10604 10604 10604 10603 10603 10602 10601 10601 10599 10599 10598 10597 10596 10596 10594
10525 10528 10530 10533 10536 10539 10542 10544 10546 10547 10548 10549 10551 10551 10553 10555 10557 10559 10561 10563 10564 10566 10567 10569 10570 10571 10571 10574 10576 10578 10579 10580 10583 10584 10584 10583 10583 10583 10584 10586 10589 10590 10590 10589 10590 10593 10594 10594 10594 10594 10596 10597 10597 10597 10598 10598 10598 10598 10598 10598 10598 10598 10598 10599 10598 10598 10598 10598 10598 10598 10598 10598 10597 10597 10596 10596 10595 10594 10594 10593 10592 10591 10590 10589 10588 10587
10518 10521 10524 10528 10531 10534 10537 10539 10541 10543 10544 10544 10545 10546 10547 10549 10551 10554 10555 10555 10556 10558 10560 10562 10563 10564 10566 10568 10570 10571 10572 10573 10576 10578 10578 10578 10578 10578 10578 10579 10581 10583 10583 10581 10582 10584 10586 10586 10586 10586 10588 10589 10590 10590 10591 10591 10591 10591 10591 10591 10592 10592 10592 10592 10592 10591 10591 10591 10591 10591 10591 10591 10590 10590 10589 10589 10588 10588 10586 10586 10584 10584 10583 10582 10581 10580
10511 10514 10518 10523 10526 10528 10531 10533 10534 10536 10538 10539 10539 10540 10541 10543 10546 10547 10547 10547 10549 10553 10556 10557 10557 10558 10559 10561 10563 10564 10565 10568 10569 10570 10571 10573 10573 10573 10571 10571 10574 10576 10576 10574 10574 10576 10579 10579 10579 10579 10580 10581 10582 10583 10583 10584 10584 10584 10584 10585 10585 10585 10585 10585 10585 10584 10584 10584 10584 10584 10584 10583 10583 10583 10582 10581 10581 10580 10579 10579 10578 10577 10576 10575 10574 10573
10505 10508 10512 10516 10520 10523 10524 10526 10527 10528 10530 10532 10533 10534 10535 10536 10538 10538 10538 10540 10544 10548 10551 10550 10550 10551 10553 10554 10556 10558 10559 10561 10561 10563 10564 10566 10567 10565 10563 10564 10568 10570 10569 10568 10568 10570 10571 10572 10572 10572 10573 10574 10574 10575 10576 10576 10576 10577 10578 10578 10578 10578 10578 10578 10578 10578 10578 10578 10578 10577 10577 10576 10576 10576 10575 10574 10574 10573 10573 10571 10571 10570 10569 10568 10567 10566
10499 10503 10506 10510 10513 10516 10518 10519 10519 10521 10523 10525 10527 10528 10529 10530 10531 10531 10532 10534 10539 10543 10543 10543 10543 10544 10547 10549 10551 10552 10553 10552 10553 10555 10558 10560 10560 10558 10556 10559 10561 10563 10563 10563 10563 10564 10564 10563 10564 10566 10567 10567 10567 10567 10568 10568 10569 10569 10570 10571 10571 10571 10572 10572 10572 10571 10571 10571 10571 10571 10571 10570 10569 10569 10568 10568 10567 10566 10565 10564 10564 10563 10562 10561 10560 10559
10493 10496 10499 10503 10506 10509 10511 10512 10513 10514 10516 10518 10520 10522 10523 10524 10526 10526 10528 10530 10533 10536 10536 10536 10536 10538 10540 10542 10544 10544 10544 10543 10545 10548 10552 10554 10553 10550 10550 10553 10555 10556 10555 10556 10557 10558 10556 10555 10556 10558 10561 10561 10561 10559 10559 10561 10562 10563 10563 10563 10564 10564 10564 10564 10565 10565 10565 10564 10564 10564 10564 10563 10563 10562 10561 10561 10560 10559 10558 10558 10557 10556 10555 10554 10553 10551
10486 10489 10493 10495 10498 10501 10504 10506 10507 10508 10510 10512 10514 10515 10516 10518 10520 10521 10523 10525 10527 10528 10529 10529 10531 10531 10533 10535 10536 10536 10536 10536 10538 10542 10545 10546 10546 10544 10543 10546 10548 10548 10548 10549 10550 10551 10551 10549 10549 10550 10553 10555 10554 10553 10553 10553 10554 10556 10556 10556 10556 10556 10556 10557 10558 10559 10558 10558 10558 10558 10558 10556 10556 10555 10554 10554 10553 10553 10551 10551 10550 10549 10548 10548 10546 10544
10479 10483 10486 10489 10491 10494 10497 10499 10501 10503 10504 10505 10506 10508 10509 10511 10513 10516 10519 10521 10522 10523 10524 10524 10524 10525 10526 10528 10529 10529 10529 10530 10532 10534 10538 10539 10539 10538 10537 10538 10540 10541 10541 10541 10543 10544 10544 10543 10543 10543 10545 10546 10547 10547 10547 10547 10548 10548 10549 10550 10550 10549 10549 10550 10551 10551 10551 10551 10551 10550 10550 10549 10549 10548 10548 10547 10546 10546 10544 10544 10543 10543 10542 10541 10539 10538
10472 10475 10478 10481 10484 10487 10489 10492 10494 10496 10497 10498 10499 10501 10502 10504 10507 10510 10513 10516 10517 10518 10518 10518 10518 10519 10520 10521 10523 10523 10524 10524 10525 10528 10530 10532 10532 10531 10530 10531 10532 10533 10534 10534 10535 10536 10537 10537 10537 10538 10538 10538 10539 10539 10540 10541 10541 10542 10543 10543 10543 10543 10543 10543 10543 10544 10543 10543 10543 10543 10543 10542 10542 10541 10541 10540 10539 10539 10538 10537 10536 10536 10534 10534 10533 10531
10464 10467 10470 10473 10476 10479 10482 10484 10486 10488 10490 10491 10492 10493 10495 10498 10501 10504 10507 10509 10511 10511 10511 10512 10513 10513 10514 10515 10516 10516 10516 10517 10518 10520 10523 10525 10525 10524 10523 10524 10524 10526 10527 10528 10528 10529 10529 10530 10530 10531 10531 10531 10531 10531 10532 10534 10534 10536 10536 10536 10536 10536 10536 10536 10536 10536 10536 10536 10536 10535 10535 10535 10534 10534 10534 10533 10533 10532 10531 10530 10529 10528 10528 10526 10525 10524
10456 10459 10462 10465 10468 10471 10474 10476 10479 10481 10483 10484 10485 10486 10489 10491 10494 10497 10500 10502 10503 10504 10505 10506 10507 10508 10508 10509 10509 10509 10509 10509 10511 10514 10516 10517 10517 10517 10517 10517 10518 10519 10521 10521 10521 10522 10523 10523 10523 10524 10524 10524 10524 10523 10524 10526 10528 10529 10529 10529 10529 10529 10529 10529 10529 10529 10529 10528 10528 10527 10527 10527 10527 10527 10526 10525 10525 10524 10524 10523 10522 10521 10520 10519 10518 10517
10448 10451 10454 10457 10460 10463 10466 10468 10471 10473 10474 10476 10478 10480 10483 10485 10488 10490 10493 10494 10496 10497 10498 10499 10500 10501 10503 10503 10504 10503 10503 10503 10505 10507 10508 10509 10509 10510 10511 10510 10510 10512 10514 10515 10515 10515 10516 10517 10517 10517 10517 10517 10517 10516 10517 10518 10520 10522 10522 10521 10522 10523 10523 10522 10522 10522 10522 10521 10520 10519 10519 10519 10519 10519 10518 10518 10517 10517 10516 10516 10514 10514 10513 10512 10511 10510
10439 10443 10445 10448 10451 10455 10458 10460 10463 10464 10467 10469 10471 10473 10476 10479 10481 10483 10485 10487 10489 10490 10491 10491 10493 10494 10495 10496 10497 10498 10498 10498 10499 10499 10500 10501 10502 10503 10504 10504 10504 10505 10507 10508 10508 10509 10509 10510 10510 10509 10509 10509 10509 10510 10511 10512 10513 10514 10514 10514 10514 10515 10516 10514 10514 10514 10515 10514 10513 10513 10512 10512 10512 10512 10511 10511 10511 10510 10510 10509 10508 10506 10506 10506 10504 10503
10431 10434 10436 10439 10443 10446 10449 10452 10454 10456 10458 10461 10463 10466 10469 10471 10474 10476 10478 10480 10481 10483 10483 10484 10485 10486 10488 10489 10490 10491 10491 10492 10493 10493 10493 10494 10495 10496 10498 10498 10498 10499 10499 10501 10502 10503 10503 10503 10503 10502 10502 10502 10503 10503 10504 10505 10506 10507 10506 10506 10507 10508 10507 10506 10506 10507 10508 10507 10506 10506 10506 10505 10505 10505 10505 10504 10504 10504 10503 10502 10500 10499 10498 10498 10496 10494
10421 10424 10428 10431 10434 10438 10441 10443 10445 10448 10451 10453 10456 10459 10461 10464 10466 10468 10471 10473 10474 10475 10476 10477 10478 10479 10481 10482 10483 10484 10485 10486 10486 10486 10487 10488 10489 10490 10491 10492 10492 10493 10493 10494 10495 10496 10496 10496 10496 10495 10496 10496 10496 10496 10497 10498 10499 10499 10499 10500 10500 10499 10497 10498 10499 10500 10499 10499 10499 10499 10499 10498 10498 10498 10498 10498 10498 10497 10496 10494 10493 10491 10489 10488 10487 10486
10413 10416 10419 10423 10426 10429 10432 10434 10437 10440 10443 10446 10449 10451 10453 10455 10458 10459 10462 10464 10466 10468 10469 10470 10471 10473 10473 10474 10476 10477 10478 10479 10479 10480 10481 10482 10483 10484 10484 10486 10486 10486 10486 10487 10488 10489 10489 10489 10489 10489 10490 10490 10490 10491 10491 10491 10491 10492 10493 10494 10493 10491 10489 10490 10492 10493 10493 10492 10492 10492 10492 10492 10491 10491 10491 10490 10490 10489 10488 10486 10484 10483 10481 10479 10478 10476
10405 10408 10410 10413 10416 10420 10423 10426 10429 10433 10436 10438 10441 10443 10444 10446 10448 10451 10453 10456 10458 10459 10461 10463 10464 10465 10466 10467 10468 10469 10470 10471 10473 10474 10474 10476 10476 10478 10479 10479 10479 10480 10480 10480 10481 10481 10482 10483 10484 10484 10484 10484 10484 10485 10485 10484 10484 10485 10486 10487 10486 10484 10483 10484 10484 10485 10486 10486 10486 10485 10484 10485 10485 10485 10484 10483 10483 10481 10479 10478 10477 10475 10473 10471 10469 10468
10398 10399 10401 10403 10406 10410 10414 10418 10422 10425 10428 10430 10432 10433 10434 10436 10439 10443 10446 10448 10449 10451 10453 10454 10456 10458 10459 10459 10460 10461 10463 10464 10466 10466 10468 10469 10470 10471 10472 10473 10473 10473 10473 10473 10473 10474 10474 10475 10478 10479 10479 10478 10478 10479 10479 10478 10478 10478 10479 10480 10480 10479 10479 10477 10476 10476 10478 10480 10480 10479 10478 10478 10479 10479 10478 10476 10476 10474 10473 10471 10469 10468 10466 10464 10463 10461
10390 10391 10392 10394 10396 10401 10406 10411 10414 10418 10419 10421 10423 10423 10425 10428 10431 10434 10438 10440 10441 10443 10444 10446 10449 10451 10453 10453 10453 10454 10455 10456 10458 10459 10461 10462 10463 10464 10464 10466 10466 10466 10465 10465 10465 10466 10466 10468 10471 10472 10472 10472 10472 10473 10473 10471 10471 10471 10473 10473 10473 10473 10472 10470 10468 10469 10471 10473 10473 10471 10471 10472 10472 10472 10471 10469 10468 10466 10465 10464 10463 10461 10458 10456 10455 10454
10383 10384 10384 10386 10388 10393 10398 10402 10406 10408 10410 10411 10413 10414 10416 10419 10422 10426 10429 10431 10433 10434 10436 10439 10441 10444 10445 10446 10446 10446 10448 10449 10451 10453 10454 10454 10456 10456 10458 10458 10458 10458 10457 10456 10456 10457 10459 10461 10464 10464 10465 10465 10466 10466 10465 10464 10464 10465 10466 10466 10466 10466 10465 10463 10462 10462 10463 10464 10464 10464 10464 10465 10466 10466 10465 10463 10460 10458 10458 10457 10456 10454 10451 10449 10448 10446
10374 10376 10377 10378 10381 10384 10389 10393 10396 10398 10401 10403 10404 10406 10408 10411 10414 10417 10420 10423 10424 10426 10428 10431 10434 10436 10438 10438 10438 10439 10440 10443 10444 10445 10446 10447 10449 10450 10451 10451 10451 10450 10449 10448 10447 10448 10451 10454 10456 10458 10458 10459 10459 10459 10458 10458 10458 10459 10459 10459 10458 10458 10458 10456 10456 10454 10454 10455 10455 10456 10456 10456 10458 10458 10458 10455 10453 10451 10450 10449 10448 10446 10444 10443 10440 10438
10364 10367 10369 10370 10373 10376 10380 10383 10387 10389 10392 10394 10396 10398 10399 10402 10405 10408 10411 10414 10416 10418 10420 10423 10426 10428 10430 10430 10430 10431 10433 10435 10436 10437 10438 10439 10441 10443 10444 10444 10444 10443 10442 10440 10439 10439 10442 10445 10448 10450 10451 10453 10453 10452 10451 10451 10451 10453 10453 10452 10451 10450 10450 10449 10448 10447 10446 10446 10447 10447 10447 10448 10448 10449 10448 10446 10444 10443 10442 10441 10439 10438 10437 10435 10433 10431
10355 10358 10360 10362 10365 10368 10372 10375 10379 10381 10384 10386 10387 10389 10391 10393 10396 10399 10403 10405 10408 10409 10412 10415 10418 10419 10421 10422 10423 10424 10426 10428 10429 10429 10429 10431 10433 10434 10436 10436 10436 10436 10435 10434 10433 10433 10434 10436 10438 10441 10443 10445 10446 10446 10445 10444 10445 10446 10447 10446 10444 10443 10443 10442 10441 10439 10439 10439 10439 10438 10438 10438 10439 10439 10439 10437 10436 10434 10433 10431 10430 10429 10428 10426 10424 10423
10346 10349 10351 10354 10357 10360 10364 10367 10370 10373 10376 10378 10379 10381 10383 10385 10388 10391 10394 10396 10398 10401 10404 10406 10409 10411 10413 10414 10416 10417 10419 10420 10421 10422 10422 10423 10424 10426 10427 10428 10428 10428 10428 10427 10427 10426 10427 10428 10429 10432 10434 10437 10439 10439 10439 10438 10438 10439 10440 10440 10439 10438 10437 10436 10434 10434 10433 10433 10433 10431 10431 10430 10430 10430 10429 10429 10428 10425 10423 10421 10420 10419 10419 10417 10416 10414
10337 10340 10343 10346 10349 10352 10355 10358 10362 10365 10368 10371 10372 10374 10375 10378 10380 10383 10385 10388 10389 10392 10395 10398 10400 10403 10404 10406 10408 10409 10411 10413 10414 10414 10414 10414 10415 10416 10418 10419 10419 10419 10420 10420 10420 10420 10420 10421 10422 10423 10424 10427 10430 10432 10433 10431 10430 10429 10431 10433 10433 10432 10431 10430 10429 10428 10428 10427 10426 10426 10424 10423 10423 10422 10421 10421 10419 10417 10414 10411 10410 10409 10409 10408 10406 10404
10329 10332 10335 10338 10341 10343 10346 10349 10353 10357 10360 10363 10365 10368 10369 10371 10373 10375 10377 10379 10381 10383 10386 10389 10392 10394 10397 10398 10400 10401 10403 10404 10406 10406 10406 10406 10407 10408 10409 10410 10410 10411 10411 10412 10413 10413 10414 10414 10416 10416 10416 10417 10419 10423 10425 10424 10423 10421 10421 10423 10424 10424 10424 10424 10423 10421 10420 10420 10420 10419 10418 10416 10414 10413 10413 10411 10411 10409 10406 10403 10401 10399 10399 10398 10397 10396